Regional Weather Roundup
Issued by NWS Little Rock, AR

Home | Current Version | Previous Version | Text Only | Print | Product List | Glossary Off
Versions: 1 2 3 4 5 6 7 8 9 10 11 12 13 14 15 16 17 18 19 20 21 22 23 24 25 26 27 28 29 30 31 32

000
ASUS44 KLZK 270605
RWRLZK

WEATHER ROUNDUP FOR ARKANSAS
NATIONAL WEATHER SERVICE LITTLE ROCK AR
100 AM CDT MON MAR 27 2017

NOTE: "FAIR" INDICATES FEW OR NO CLOUDS BELOW 12,000 FEET WITH NO
SIGNIFICANT WEATHER AND/OR OBSTRUCTIONS TO VISIBILITY.

ARZ001-003-010-029-270700-
NORTHWEST ARKANSAS

CITY           SKY/WX    TMP DP  RH WIND       PRES   REMARKS
FAYETTEVILLE   CLOUDY    57  56  96 SE6       29.78F
6HR MIN TEMP:  57; 6HR MAX TEMP:  67; 6HR PCP:  0.62;

FORT SMITH     CLOUDY    61  56  83 SE18G28   29.71F
6HR MIN TEMP:  59; 6HR MAX TEMP:  71; 6HR PCP:  0.60;

HARRISON       HVY RAIN  55  55 100 W6        29.91F FOG
6HR MIN TEMP:  56; 6HR MAX TEMP:  66; 6HR PCP:  0.30;

BENTONVILLE    CLOUDY    57  52  82 SE16      29.79R
6HR MIN TEMP:  57; 6HR MAX TEMP:  66; 6HR PCP:  0.77;

ROGERS         CLOUDY    57  54  89 SE12      29.79R
6HR MIN TEMP:  57; 6HR MAX TEMP:  66; 6HR PCP:  0.82;

SILOAM SPGS    CLOUDY    59  52  77 SE13      29.76F
6HR MIN TEMP:  57; 6HR MAX TEMP:  64; 6HR PCP:  0.62;

HIGHFILL       CLOUDY    59  54  83 SE17      29.78R
6HR MIN TEMP:  58; 6HR MAX TEMP:  66; 6HR PCP:  0.70;

$$

ARZ004-005-016-270700-
NORTH CENTRAL ARKANSAS

CITY           SKY/WX    TMP DP  RH WIND       PRES   REMARKS
BATESVILLE     CLOUDY    63  52  67 E10       29.86F
6HR MIN TEMP:  63; 6HR MAX TEMP:  70;

FLIPPIN        CLOUDY    61  46  59 NW10G16   29.85S
6HR MIN TEMP:  61; 6HR MAX TEMP:  70;

MTN HOME       CLOUDY    61  51  70 SE3       29.85F
6HR MIN TEMP:  61; 6HR MAX TEMP:  67;

$$

ARZ040-041-270700-
WEST CENTRAL ARKANSAS

CITY           SKY/WX    TMP DP  RH WIND       PRES   REMARKS
MENA           CLOUDY    61  61 100 SW9G20    29.88R THUNDER
MOUNT IDA      CLOUDY    71  54  54 VRB3      29.83R
6HR MIN TEMP:  67; 6HR MAX TEMP:  74;

$$

ARZ009-017-025-026-028-270700-
NORTHEAST ARKANSAS

CITY           SKY/WX    TMP DP  RH WIND       PRES   REMARKS
CORNING        FAIR      57  55  94 E8        29.91F
JONESBORO      MOCLDY    58  54  86 NE7       29.89F
6HR MIN TEMP:  56; 6HR MAX TEMP:  67;

NEWPORT        MOCLDY    61  55  81 SE12        N/A
6HR MIN TEMP:  59; 6HR MAX TEMP:  66;

WALNUT RIDGE   CLOUDY    59  52  77 E8        29.89F
6HR MIN TEMP:  57; 6HR MAX TEMP:  66;

BLYTHEVILLE    MOCLDY    59  55  87 SE6       29.93F
6HR MIN TEMP:  58; 6HR MAX TEMP:  67;

$$

ARZ022-023-033-042-044-270700-
CENTRAL ARKANSAS

CITY           SKY/WX    TMP DP  RH WIND       PRES   REMARKS
LITTLE ROCK    CLOUDY    66  57  72 S10       29.84F
6HR MIN TEMP:  62; 6HR MAX TEMP:  72;

JACKSONVILLE   CLOUDY    66  56  70 SE5       29.83F
6HR MIN TEMP:  65; 6HR MAX TEMP:  72;

CONWAY           N/A     68  57  68 SE9       29.80F
SEARCY         CLOUDY    63  55  75 E6        29.86F
6HR MIN TEMP:  62; 6HR MAX TEMP:  69;

HOT SPRINGS    CLOUDY    71  57  61 CALM      29.84F
6HR MIN TEMP:  66; 6HR MAX TEMP:  76;

RUSSELLVILLE   CLOUDY    61  56  83 NW18G30   29.85R
6HR MIN TEMP:  61; 6HR MAX TEMP:  72; 6HR PCP: TRACE;

CLINTON        CLOUDY    55  54  94 CALM      29.83F
$$

ARZ036-270700-
EAST ARKANSAS

CITY           SKY/WX    TMP DP  RH WIND       PRES   REMARKS
WEST MEMPHIS   CLOUDY    60  55  83 SE6       29.89F
6HR MIN TEMP:  59; 6HR MAX TEMP:  71;

$$

ARZ050-053-066-070-073-270700-
SOUTHWEST ARKANSAS

CITY           SKY/WX    TMP DP  RH WIND       PRES   REMARKS
ARKADELPHIA    FAIR      67  58  72 S5        29.84F
6HR MIN TEMP:  64; 6HR MAX TEMP:  72;

CAMDEN         MOCLDY    72  59  64 S9G16     29.84F
TEXARKANA      CLOUDY    71  62  73 S14       29.82F
6HR MIN TEMP:  71; 6HR MAX TEMP:  77;

EL DORADO      LGT RAIN  70  62  76 S10       29.86F
6HR MIN TEMP:  66; 6HR MAX TEMP:  78; 6HR PCP: TRACE;

$$

ARZ056-057-069-270700-
SOUTHEAST ARKANSAS

CITY           SKY/WX    TMP DP  RH WIND       PRES   REMARKS
PINE BLUFF     CLOUDY    66  58  75 S8        29.87F
6HR MIN TEMP:  64; 6HR MAX TEMP:  73;

STUTTGART      MOCLDY    66  52  59 SE10      29.87F
6HR MIN TEMP:  64; 6HR MAX TEMP:  72;

MONTICELLO     CLOUDY    70  61  73 S8        29.90R
6HR MIN TEMP:  66; 6HR MAX TEMP:  77;


$$






USA.gov is the U.S. government's official web portal to all federal, state and local government web resources and services.